This is the latest recevied weather packets stored in our database for station/object SQ7IQO. If no packets are shown the sender has not sent any weather packets the latest 10 day(s).
| Time | Temp. | Humidity | Pressure | Rain* | Wind** | Luminosity | Snow |
|---|---|---|---|---|---|---|---|
| 1787902839 | 21.11° C | 58% | 1020.9 hPa | 0 mm | 0.45 m/s, ° | - | - |
| 1787902779 | 21.11° C | 59% | 1020.9 hPa | 0 mm | 0 m/s | - | - |
| 1787902719 | 21.11° C | 58% | 1020.9 hPa | 0 mm | 0 m/s | - | - |
| 1787902659 | 21.67° C | 56% | 1020.9 hPa | 0 mm | 0.89 m/s, ° | - | - |
| 1787902599 | 21.67° C | 56% | 1020.9 hPa | 0 mm | 0.45 m/s, ° | - | - |
| 1787902539 | 22.22° C | 53% | 1020.9 hPa | 0 mm | 0.45 m/s, ° | - | - |
| 1787902479 | 22.22° C | 55% | 1021 hPa | 0 mm | 0.89 m/s, ° | - | - |
| 1787902419 | 21.67° C | 55% | 1021.1 hPa | 0 mm | 0.45 m/s, ° | - | - |
| 1787902359 | 21.67° C | 56% | 1021.1 hPa | 0 mm | 0 m/s | - | - |
| 1787902299 | 21.11° C | 57% | 1021.1 hPa | 0 mm | 0 m/s | - | - |
| 1787902239 | 21.11° C | 58% | 1021.1 hPa | 0 mm | 0 m/s | - | - |
| 1787902179 | 21.67° C | 56% | 1021.2 hPa | 0 mm | 0.89 m/s, ° | - | - |
| 1787902119 | 22.22° C | 54% | 1021.2 hPa | 0 mm | 0.89 m/s, ° | - | - |
| 1787902059 | 21.67° C | 56% | 1021.4 hPa | 0 mm | 0 m/s | - | - |
| 1787901999 | 21.67° C | 56% | 1021.2 hPa | 0 mm | 0 m/s | - | - |
| 1787901939 | 21.67° C | 58% | 1021.2 hPa | 0 mm | 0 m/s | - | - |
| 1787901879 | 21.67° C | 57% | 1021.4 hPa | 0 mm | 0 m/s | - | - |
| 1787901819 | 21.11° C | 55% | 1021.4 hPa | 0 mm | 0.45 m/s, ° | - | - |
| 1787901759 | 21.11° C | 56% | 1021.2 hPa | 0 mm | 0.45 m/s, ° | - | - |
| 1787901699 | 21.11° C | 55% | 1021.4 hPa | 0 mm | 0.45 m/s, ° | - | - |
| 1787901639 | 21.67° C | 55% | 1021.4 hPa | 0 mm | 0.45 m/s, ° | - | - |
| 1787901579 | 21.67° C | 55% | 1021.4 hPa | 0 mm | 0.89 m/s, ° | - | - |
| 1787901519 | 21.67° C | 54% | 1021.5 hPa | 0 mm | 0 m/s | - | - |
| 1787901459 | 21.67° C | 56% | 1021.5 hPa | 0 mm | 0 m/s | - | - |
| 1787901399 | 21.67° C | 57% | 1021.5 hPa | 0 mm | 0 m/s | - | - |
* Rain latest hour (hover to see other rain measurements)
** Current wind speed in m/s (hover to see current wind gust speed)